Wind_Speed
14 14 14 14 14 14 15 15 14 14 14 14 14 15 14 14 16 16 15 14 14 13 11 7 9 10 9 13 14 16 13 11 8 13 13 11 12 9 10 14 9 3 21 28 26
16 16 15 15 15 15 15 15 15 15 15 15 14 15 15 16 16 19 19 20 18 15 15 14 11 10 12 11 6 13 4 12 13 12 12 11 11 13 12 12 11 19 26 27 26
16 16 17 17 17 16 16 16 16 16 15 14 14 14 14 14 17 20 17 21 19 17 15 15 12 12 16 14 6 6 8 6 9 14 13 12 14 13 12 11 13 21 28 27 25
17 17 17 18 18 18 17 17 17 16 16 14 14 13 13 10 7 1 7 12 20 18 17 18 17 16 17 10 2 10 7 3 14 13 11 12 12 10 4 12 15 21 25 26 24
18 18 18 18 19 19 19 18 17 17 16 15 14 13 12 11 19 13 9 4 19 22 22 21 19 16 16 5 3 8 6 5 10 8 14 10 8 9 9 10 17 22 23 22 21
18 19 19 20 19 20 20 19 18 17 16 15 13 13 11 19 8 6 10 11 14 22 23 22 17 16 16 10 9 5 7 10 10 12 8 12 11 11 10 15 20 21 21 21 21
18 19 19 20 20 20 20 20 19 17 15 14 13 12 13 21 6 7 11 13 15 22 22 22 19 10 11 12 5 6 10 10 11 11 9 11 11 15 14 17 19 19 19 19 19
20 20 19 20 20 20 19 19 19 17 15 12 11 10 13 7 17 12 12 12 14 17 20 18 17 16 20 5 8 13 15 15 14 11 8 8 13 15 18 19 18 19 19 19 19
21 21 21 21 21 20 19 17 17 16 13 9 6 8 18 12 15 17 16 15 16 15 18 16 17 19 18 14 14 13 15 15 13 14 8 10 14 17 18 18 19 18 19 19 20
23 23 22 21 21 20 16 14 14 13 11 7 10 8 20 15 12 18 19 14 17 16 17 18 14 15 17 15 16 20 20 22 19 12 10 7 11 13 17 17 18 19 19 20 21
24 24 24 21 20 17 12 7 5 4 15 17 10 14 5 9 11 18 22 18 18 20 16 25 17 20 24 22 24 16 16 21 13 19 11 13 8 18 17 18 19 20 21 21 21
25 25 24 20 18 10 9 6 4 6 13 22 27 22 8 13 14 20 24 22 19 19 22 16 24 24 23 23 24 12 14 16 13 16 10 11 11 11 20 20 20 21 22 23 23
27 26 25 20 9 11 5 1 6 10 10 18 29 31 26 16 19 25 30 29 20 22 24 22 23 25 23 22 20 18 17 12 12 11 12 12 9 12 17 22 20 22 23 23 25
27 26 25 21 5 10 2 5 9 8 6 14 15 19 30 23 24 23 30 29 15 22 23 25 22 25 24 24 22 20 19 17 14 13 14 17 13 16 18 20 20 24 25 26 26
26 25 23 19 15 5 8 11 10 4 6 12 15 7 24 33 14 32 29 31 24 20 17 24 23 25 27 24 23 20 20 18 17 13 16 14 9 6 6 13 17 24 27 28 28
27 24 24 11 13 13 11 12 6 7 10 10 12 14 18 29 29 28 31 33 27 19 21 24 26 26 23 22 23 22 22 15 18 13 15 19 11 13 13 13 16 21 28 29 28
26 24 21 15 7 10 12 6 7 11 6 12 15 18 22 19 27 22 30 27 23 21 21 22 25 21 19 22 28 25 22 11 14 14 13 16 15 15 4 14 16 19 26 29 30
25 22 18 12 12 11 7 9 13 9 24 3 14 19 21 20 25 21 28 24 28 24 15 19 20 23 23 28 27 26 24 15 19 13 16 18 16 7 10 11 8 10 23 25 31
25 17 14 11 9 8 12 14 8 18 9 12 11 16 20 20 19 22 27 28 29 27 25 20 26 25 25 21 27 28 24 24 23 20 16 15 16 17 15 14 12 13 17 23 28
26 20 17 12 10 10 12 23 19 10 7 10 18 15 19 22 20 26 25 27 28 31 25 19 16 23 24 23 28 29 21 23 18 22 21 17 12 9 16 15 16 15 18 20 20
16 12 5 4 5 16 15 21 24 34 18 10 14 20 17 19 22 21 26 21 29 29 28 25 12 19 23 25 25 23 23 20 24 20 18 16 15 14 11 10 11 14 17 20 22
14 7 2 4 13 15 15 22 25 25 22 20 17 17 19 18 18 24 22 20 18 27 32 27 14 17 25 22 23 26 28 28 15 23 19 17 16 13 14 14 16 16 10 11 4
12 18 16 10 8 13 18 21 20 16 17 20 23 23 17 17 18 16 18 20 8 20 28 23 21 15 22 20 23 27 25 28 25 21 21 18 17 15 5 9 12 9 8 10 8
13 6 11 14 19 14 16 11 8 14 18 24 21 22 22 22 19 15 19 12 4 14 8 26 21 25 18 21 22 26 27 28 26 20 22 23 21 17 13 16 17 16 16 15 13
12 7 7 7 2 5 10 11 14 14 14 20 15 23 22 21 20 19 18 15 7 14 12 17 24 25 26 25 23 24 25 27 30 28 25 21 25 23 17 15 11 15 16 14 16
18 9 11 17 16 11 12 13 18 18 15 11 15 9 15 21 20 17 21 21 10 18 18 21 19 22 25 24 26 21 27 25 29 30 28 26 25 18 20 26 23 19 19 17 12
9 13 12 14 13 11 11 11 13 6 5 16 9 9 10 7 19 20 21 23 17 11 19 22 18 18 22 23 23 25 29 25 27 26 21 24 25 22 22 12 12 19 20 17 18
Wind_Direction
320 316 314 313 311 311 311 311 309 308 306 305 307 308 310 306 299 291 266 255 240 241 231 207 226 244 256 259 262 278 270 62 89 70 99 121 110 76 93 128 137 61 137 147 150
319 318 315 310 306 305 305 306 306 303 302 301 301 303 307 307 298 273 257 242 238 236 210 202 223 241 254 258 264 269 11 57 47 112 108 104 111 121 136 117 123 119 130 147 152
315 313 313 311 306 302 301 301 299 298 297 297 297 298 303 312 303 244 229 238 230 223 205 214 236 239 259 261 262 303 39 65 82 84 122 119 116 147 123 147 140 138 148 155 161
314 310 308 308 306 302 300 298 296 295 295 294 294 292 294 300 281 226 245 247 214 202 201 218 233 239 248 245 119 270 97 15 94 113 120 116 131 146 95 70 142 150 157 160 167
321 315 310 305 303 302 300 298 296 295 294 293 290 288 290 256 254 252 253 265 195 190 203 213 223 232 258 295 253 233 93 146 124 108 90 133 94 114 79 126 140 151 160 165 170
330 324 316 310 305 300 298 297 296 293 291 289 285 280 274 259 243 238 234 237 200 195 205 211 223 234 286 292 278 90 195 142 141 117 143 116 121 160 121 137 144 156 166 171 174
331 328 325 319 311 304 297 293 292 291 288 284 277 270 254 244 233 230 203 211 198 202 209 213 222 247 226 262 219 185 164 154 147 157 150 136 159 101 141 150 154 165 172 176 179
331 328 326 323 318 309 299 292 291 290 286 278 266 255 262 268 227 221 193 195 197 207 213 217 224 249 259 292 225 219 177 180 155 170 132 232 114 135 153 160 166 174 178 181 185
330 328 327 327 321 315 305 295 290 289 282 269 252 233 259 216 225 210 199 199 200 205 208 215 219 233 231 235 221 215 207 124 159 192 148 161 134 139 168 169 173 183 185 188 189
329 328 328 332 325 321 314 302 292 282 271 252 241 243 235 226 214 201 195 190 184 181 189 204 212 223 232 214 223 192 231 138 198 175 180 200 118 153 178 181 182 188 189 194 195
329 328 327 334 330 330 332 322 294 224 219 228 231 224 175 177 174 193 187 185 185 187 193 198 203 211 208 217 239 201 156 251 164 156 196 222 186 156 182 194 191 191 194 199 202
332 330 328 336 332 343 4 322 4 327 293 249 246 238 219 195 192 191 185 187 196 199 206 184 214 214 223 219 239 256 258 216 157 144 205 198 218 191 171 204 199 195 196 203 201
332 332 330 339 345 4 329 359 336 328 262 267 229 220 214 206 218 191 191 201 195 204 203 210 211 220 214 224 232 241 238 234 183 163 204 252 254 233 189 188 209 206 200 202 203
330 333 334 334 342 330 328 294 328 319 272 237 207 221 212 206 225 206 199 203 206 214 217 225 218 206 223 225 217 231 227 250 237 163 215 204 254 200 198 191 194 209 202 200 202
324 330 328 332 312 314 299 316 313 288 272 114 152 186 192 194 178 207 196 208 220 212 216 216 220 224 219 213 221 231 222 225 255 190 254 173 256 265 168 191 194 204 206 205 199
318 324 321 338 300 287 301 305 298 231 240 172 152 189 177 198 228 186 199 208 220 225 224 235 214 230 219 216 224 222 242 203 235 245 223 243 237 224 207 199 188 197 207 207 203
314 315 311 299 247 281 301 279 224 238 112 175 176 181 193 190 213 176 193 200 207 214 215 214 232 221 217 222 220 217 232 219 220 225 240 236 218 250 206 174 184 180 201 205 205
314 314 313 279 261 279 274 227 236 241 232 59 201 186 202 192 209 195 190 203 211 212 205 206 216 204 216 227 218 216 222 225 214 226 233 223 250 242 251 274 231 199 183 198 205
319 319 290 265 251 241 230 219 218 242 275 228 209 214 207 205 195 190 213 209 205 214 224 200 223 192 217 216 228 211 221 234 245 223 243 237 194 223 222 218 230 232 193 189 203
325 312 271 236 246 227 229 235 227 278 340 300 254 216 216 207 199 201 203 211 216 211 221 241 222 214 199 213 227 231 205 228 239 245 254 252 232 227 186 216 227 228 208 197 206
333 291 181 245 218 225 231 231 245 265 287 262 270 260 239 219 208 220 212 217 210 210 217 235 233 209 191 208 209 221 224 218 239 236 248 250 252 211 220 189 218 227 209 199 197
301 267 190 262 244 231 237 236 255 261 266 253 263 277 286 268 251 212 224 223 215 213 207 219 227 237 201 204 222 223 219 232 233 229 249 251 249 250 215 184 223 248 242 276 322
287 282 271 246 250 233 248 237 252 266 252 256 252 254 267 274 268 251 247 220 248 208 221 199 227 223 248 195 209 224 225 226 230 246 241 234 242 251 133 161 189 218 249 239 249
292 292 206 215 250 288 292 281 266 255 254 264 274 265 251 244 259 256 245 221 188 245 341 204 219 229 220 222 201 217 223 232 229 233 234 243 252 238 225 198 205 227 229 235 231
261 274 4 295 252 297 313 294 280 262 242 258 264 251 258 242 240 237 256 254 197 240 264 230 224 231 233 255 222 201 220 231 234 235 239 235 239 239 229 247 228 236 253 255 260
281 330 329 290 286 269 257 254 250 250 265 258 242 291 248 253 248 239 245 250 235 221 223 229 226 233 239 234 250 252 219 220 233 232 233 243 254 252 241 244 240 240 243 258 255
292 295 300 287 270 255 260 264 250 11 259 264 346 327 265 309 326 315 308 303 298 283 214 229 218 222 235 229 238 242 238 225 220 236 228 236 241 248 257 259 241 245 250 250 250
Height
1537 1535 1533 1532 1530 1528 1526 1525 1523 1521 1520 1518 1516 1515 1513 1511 1509 1507 1507 1509 1508 1508 1509 1511 1512 1512 1510 1507 1500 1494 1483 1476 1482 1486 1498 1501 1503 1508 1513 1519 1521 1522 1527 1538 1545
1536 1533 1531 1529 1527 1525 1524 1522 1521 1519 1517 1516 1514 1512 1511 1509 1506 1503 1504 1503 1505 1505 1508 1511 1511 1510 1506 1500 1495 1485 1473 1483 1479 1485 1494 1501 1504 1511 1514 1519 1522 1524 1532 1540 1546
1534 1532 1529 1527 1524 1523 1521 1519 1518 1516 1515 1513 1512 1510 1509 1507 1503 1494 1495 1498 1501 1503 1508 1510 1509 1507 1503 1494 1488 1481 1479 1481 1485 1491 1496 1501 1508 1510 1513 1513 1521 1527 1533 1540 1545
1532 1529 1527 1524 1522 1520 1518 1516 1514 1513 1512 1511 1509 1508 1507 1506 1499 1494 1495 1495 1496 1500 1506 1508 1507 1504 1497 1488 1488 1486 1483 1485 1489 1493 1498 1498 1506 1508 1509 1513 1520 1528 1535 1539 1543
1529 1527 1524 1522 1519 1517 1514 1513 1511 1510 1508 1507 1507 1506 1505 1504 1496 1491 1494 1493 1494 1497 1502 1504 1504 1501 1494 1485 1488 1486 1484 1488 1491 1495 1498 1503 1503 1509 1513 1518 1523 1530 1536 1540 1543
1527 1524 1521 1519 1516 1514 1511 1509 1508 1506 1505 1504 1503 1503 1502 1499 1493 1491 1492 1492 1494 1496 1500 1501 1501 1499 1493 1489 1487 1485 1486 1487 1491 1497 1500 1500 1507 1507 1517 1520 1526 1532 1536 1539 1542
1525 1522 1518 1515 1513 1510 1508 1505 1504 1502 1501 1500 1500 1499 1500 1493 1491 1491 1491 1491 1494 1496 1498 1499 1500 1498 1493 1489 1488 1486 1485 1487 1490 1495 1498 1498 1503 1505 1516 1521 1527 1531 1535 1538 1541
1523 1519 1516 1513 1509 1506 1503 1501 1499 1498 1498 1497 1497 1496 1492 1486 1488 1489 1490 1491 1493 1495 1497 1499 1500 1498 1494 1488 1487 1482 1478 1488 1487 1492 1495 1496 1505 1508 1515 1519 1525 1529 1533 1537 1540
1521 1517 1513 1510 1506 1502 1499 1497 1495 1494 1494 1494 1495 1495 1486 1481 1483 1485 1487 1488 1491 1493 1496 1497 1498 1497 1493 1489 1485 1480 1482 1486 1489 1487 1490 1498 1495 1505 1511 1516 1521 1526 1530 1534 1537
1518 1515 1511 1507 1503 1499 1496 1493 1491 1490 1490 1491 1492 1496 1479 1476 1477 1480 1484 1486 1488 1491 1494 1495 1495 1490 1485 1483 1490 1480 1476 1484 1487 1485 1487 1489 1490 1500 1507 1511 1516 1521 1526 1530 1533
1516 1512 1509 1505 1501 1497 1494 1493 1492 1490 1488 1479 1474 1473 1471 1472 1476 1477 1480 1483 1486 1487 1485 1488 1488 1483 1473 1471 1461 1458 1469 1475 1466 1473 1484 1482 1484 1490 1502 1505 1509 1514 1520 1524 1528
1515 1510 1507 1504 1499 1497 1495 1494 1495 1495 1484 1475 1472 1471 1470 1470 1472 1474 1478 1479 1480 1479 1479 1482 1479 1469 1468 1465 1462 1461 1464 1465 1462 1469 1479 1479 1482 1478 1489 1497 1500 1506 1512 1517 1523
1512 1509 1504 1502 1499 1498 1497 1496 1495 1494 1485 1461 1458 1461 1465 1469 1465 1466 1472 1472 1471 1473 1469 1468 1467 1468 1466 1465 1468 1464 1468 1463 1467 1469 1474 1475 1482 1475 1476 1488 1494 1498 1504 1510 1515
1511 1507 1504 1499 1500 1497 1497 1496 1495 1494 1478 1442 1445 1450 1457 1463 1462 1460 1466 1468 1464 1465 1464 1463 1459 1462 1462 1465 1463 1470 1461 1459 1461 1475 1489 1471 1496 1475 1466 1473 1484 1491 1495 1501 1507
1509 1506 1503 1502 1498 1498 1498 1495 1494 1494 1474 1429 1437 1442 1445 1449 1442 1453 1458 1463 1459 1459 1460 1459 1458 1456 1462 1459 1456 1465 1453 1459 1460 1468 1474 1476 1485 1465 1462 1467 1473 1481 1487 1493 1500
1506 1504 1499 1502 1499 1497 1496 1494 1495 1486 1465 1428 1432 1437 1439 1443 1440 1441 1452 1459 1458 1454 1454 1451 1452 1450 1450 1451 1455 1456 1455 1455 1462 1463 1486 1469 1473 1468 1458 1460 1461 1472 1479 1486 1492
1503 1500 1498 1496 1497 1495 1493 1494 1484 1464 1420 1419 1426 1427 1430 1435 1436 1434 1444 1449 1450 1462 1459 1452 1447 1448 1449 1455 1452 1453 1460 1485 1494 1488 1489 1455 1471 1461 1445 1447 1452 1460 1470 1478 1485
1499 1496 1492 1491 1493 1492 1493 1489 1473 1425 1421 1411 1412 1417 1426 1421 1429 1429 1437 1443 1441 1441 1442 1457 1466 1446 1444 1447 1450 1450 1454 1473 1503 1494 1480 1454 1473 1457 1444 1447 1451 1454 1460 1470 1477
1495 1493 1491 1490 1490 1489 1491 1473 1443 1433 1416 1412 1414 1416 1419 1413 1420 1425 1430 1431 1430 1430 1444 1443 1447 1434 1440 1442 1441 1448 1455 1447 1459 1450 1463 1444 1445 1441 1442 1445 1451 1452 1456 1462 1468
1493 1490 1485 1486 1486 1487 1481 1460 1438 1425 1426 1423 1421 1411 1414 1410 1417 1416 1421 1417 1422 1424 1425 1423 1440 1423 1433 1440 1436 1433 1443 1464 1453 1481 1484 1453 1453 1450 1443 1447 1448 1447 1449 1454 1462
1494 1488 1480 1482 1483 1481 1462 1453 1445 1438 1436 1436 1427 1414 1405 1401 1403 1408 1411 1409 1411 1415 1422 1421 1426 1425 1422 1434 1439 1440 1442 1442 1446 1450 1469 1473 1453 1426 1434 1437 1441 1441 1443 1447 1450
1496 1484 1478 1480 1478 1465 1454 1450 1448 1437 1435 1436 1432 1426 1417 1403 1398 1401 1401 1400 1401 1408 1414 1416 1420 1435 1423 1420 1427 1427 1433 1435 1449 1462 1445 1449 1447 1416 1421 1430 1439 1439 1441 1444 1446
1493 1482 1476 1477 1465 1453 1446 1442 1441 1440 1439 1439 1432 1429 1422 1417 1415 1401 1397 1393 1398 1399 1404 1411 1423 1435 1433 1419 1419 1428 1424 1426 1431 1432 1445 1456 1446 1416 1420 1426 1433 1438 1443 1446 1449
1496 1474 1466 1468 1464 1456 1448 1439 1441 1447 1445 1442 1435 1429 1425 1422 1413 1411 1407 1394 1405 1404 1407 1405 1413 1421 1423 1420 1414 1429 1426 1423 1426 1435 1439 1436 1435 1423 1421 1427 1432 1438 1439 1443 1445
1491 1476 1473 1463 1457 1457 1459 1457 1451 1445 1443 1443 1436 1433 1426 1425 1418 1417 1409 1398 1406 1408 1407 1404 1416 1410 1409 1404 1403 1412 1421 1422 1424 1421 1429 1426 1425 1419 1418 1421 1426 1433 1437 1439 1441
1496 1489 1482 1474 1468 1468 1467 1461 1458 1451 1446 1446 1444 1430 1428 1426 1421 1421 1415 1408 1407 1406 1407 1403 1412 1411 1413 1406 1405 1405 1402 1409 1410 1410 1413 1418 1419 1410 1415 1420 1423 1428 1434 1435 1438
1496 1493 1489 1478 1469 1463 1456 1453 1452 1455 1454 1452 1451 1446 1441 1436 1435 1432 1431 1424 1414 1406 1404 1402 1405 1414 1420 1407 1408 1417 1397 1397 1401 1404 1407 1423 1416 1413 1413 1415 1418 1425 1428 1431 1433